Overview Statistics Trail Chart Weather Telemetry Raw packets
 

This is the latest recevied weather packets stored in our database for station/object AB4KY. If no packets are shown the sender has not sent any weather packets the latest 10 day(s).

<< 1 2 3 4 >>
Time Temp. Humidity Pressure Rain* Wind** Luminosity Snow
1788628339 31.67° C 59% 1012.1 hPa 0 mm - 565 W/m² -
1788628035 31.67° C 59% 1012.4 hPa 0 mm - 620 W/m² -
1788627730 31.67° C 59% 1012.2 hPa 0 mm - 571 W/m² -
1788627430 31.11° C 59% 1012.3 hPa 0 mm - 546 W/m² -
1788627125 30.56° C 61% 1012.5 hPa 0 mm - 527 W/m² -
1788626820 31.11° C 60% 1012.6 hPa 0 mm - 548 W/m² -
1788626519 30.56° C 60% 1012.7 hPa 0 mm - 590 W/m² -
1788626215 30° C 62% 1012.9 hPa 0 mm - 596 W/m² -
1788625912 31.11° C 61% 1013.1 hPa 0 mm - 597 W/m² -
1788625608 31.11° C 65% 1013.1 hPa 0 mm - 508 W/m² -
1788625306 30° C 60% 1013.1 hPa 0 mm - 593 W/m² -
1788625001 30° C 61% 1012.9 hPa 0 mm - 577 W/m² -
1788624699 30° C 65% 1012.9 hPa 0 mm - 526 W/m² -
1788624399 30° C 64% 1012.7 hPa 0 mm - 519 W/m² -
1788624093 30° C 63% 1012.8 hPa 0 mm - 531 W/m² -
1788623793 29.44° C 64% 1012.9 hPa 0 mm - 538 W/m² -
1788623492 30° C 65% 1012.8 hPa 0 mm - 532 W/m² -
1788623186 28.89° C 75% 1012.8 hPa 0 mm - 561 W/m² -
1788622882 30° C 68% 1012.6 hPa 0 mm - 423 W/m² -
1788622577 29.44° C 68% 1012.6 hPa 0 mm - 569 W/m² -
1788622273 29.44° C 66% 1012.6 hPa 0 mm - 551 W/m² -
1788621968 30.56° C 66% 1012.8 hPa 0 mm - 637 W/m² -
1788621662 29.44° C 69% 1012.8 hPa 0 mm - 498 W/m² -
1788621357 28.89° C 68% 1012.5 hPa 0 mm - 476 W/m² -
1788621053 28.33° C 73% 1012.9 hPa 0 mm - 533 W/m² -

* Rain latest hour (hover to see other rain measurements)
** Current wind speed in m/s (hover to see current wind gust speed)